TimeEDT,TemperatureF,Dew PointF,Humidity,Sea Level PressureIn,VisibilityMPH,Wind Direction,Wind SpeedMPH,Gust SpeedMPH,PrecipitationIn,Events,Conditions,WindDirDegrees,DateUTC
12:16 AM,53.6,51.8,94,30.27,10.0,East,3.5,-,N/A,,Overcast,90,2013-04-18 04:16:00
12:53 AM,53.1,51.1,93,30.27,10.0,ENE,6.9,-,N/A,,Overcast,70,2013-04-18 04:53:00
1:53 AM,52.0,50.0,93,30.25,10.0,East,5.8,-,N/A,,Overcast,90,2013-04-18 05:53:00
2:53 AM,53.1,52.0,96,30.24,8.0,ESE,4.6,-,N/A,,Overcast,120,2013-04-18 06:53:00
3:10 AM,53.6,51.8,94,30.25,8.0,Calm,Calm,-,N/A,,Overcast,0,2013-04-18 07:10:00
3:17 AM,53.6,51.8,94,30.25,8.0,East,3.5,-,N/A,,Overcast,100,2013-04-18 07:17:00
3:30 AM,53.6,51.8,94,30.25,8.0,East,3.5,-,N/A,,Overcast,80,2013-04-18 07:30:00
3:53 AM,52.0,52.0,100,30.25,8.0,East,5.8,-,N/A,,Overcast,100,2013-04-18 07:53:00
4:53 AM,53.1,52.0,96,30.24,9.0,East,5.8,-,N/A,,Overcast,90,2013-04-18 08:53:00
5:53 AM,53.1,53.1,100,30.24,5.0,ESE,6.9,-,N/A,,Overcast,120,2013-04-18 09:53:00
6:40 AM,53.6,53.6,100,30.25,2.5,Variable,4.6,-,N/A,,Overcast,0,2013-04-18 10:40:00
6:53 AM,54.0,54.0,100,30.25,2.5,SE,5.8,-,N/A,,Overcast,140,2013-04-18 10:53:00
7:15 AM,53.6,53.6,100,30.25,0.8,SE,9.2,-,N/A,,Overcast,130,2013-04-18 11:15:00
7:53 AM,54.0,54.0,100,30.26,0.8,Variable,5.8,-,N/A,,Overcast,0,2013-04-18 11:53:00
8:24 AM,53.6,53.6,100,30.26,1.8,ESE,4.6,-,N/A,,Overcast,120,2013-04-18 12:24:00
8:28 AM,55.4,53.6,94,30.26,3.0,Variable,3.5,-,N/A,,Overcast,0,2013-04-18 12:28:00
8:53 AM,54.0,54.0,100,30.27,1.8,ENE,4.6,-,N/A,,Overcast,60,2013-04-18 12:53:00
9:21 AM,53.6,53.6,100,30.27,3.0,ENE,4.6,-,N/A,,Overcast,70,2013-04-18 13:21:00
9:30 AM,53.6,53.6,100,30.28,1.8,East,4.6,-,N/A,,Overcast,80,2013-04-18 13:30:00
9:48 AM,53.6,53.6,100,30.28,0.5,East,5.8,-,N/A,Fog,Fog,80,2013-04-18 13:48:00
9:53 AM,54.0,54.0,100,30.29,0.5,ENE,3.5,-,N/A,Fog,Fog,60,2013-04-18 13:53:00
10:01 AM,53.6,53.6,100,30.29,0.2,East,3.5,-,N/A,Fog,Fog,80,2013-04-18 14:01:00
10:42 AM,55.4,53.6,94,30.29,0.8,East,4.6,-,N/A,,Mist,80,2013-04-18 14:42:00
10:53 AM,54.0,54.0,100,30.29,0.5,Calm,Calm,-,N/A,Fog,Fog,0,2013-04-18 14:53:00
11:20 AM,53.6,53.6,100,30.28,1.2,ESE,4.6,-,N/A,,Overcast,110,2013-04-18 15:20:00
11:42 AM,55.4,55.4,100,30.28,3.0,ESE,3.5,-,N/A,,Overcast,110,2013-04-18 15:42:00
11:53 AM,55.0,55.0,100,30.28,5.0,Calm,Calm,-,N/A,,Overcast,0,2013-04-18 15:53:00
12:14 PM,57.2,55.4,94,30.27,6.0,Variable,3.5,-,N/A,,Overcast,0,2013-04-18 16:14:00
12:53 PM,55.9,54.0,93,30.25,5.0,ENE,4.6,-,N/A,,Overcast,70,2013-04-18 16:53:00
1:20 PM,55.4,55.4,100,30.24,1.8,ESE,4.6,-,N/A,,Overcast,120,2013-04-18 17:20:00
1:46 PM,55.4,55.4,100,30.24,0.2,SE,3.5,-,N/A,Fog,Fog,140,2013-04-18 17:46:00
1:53 PM,55.9,55.0,97,30.24,0.5,SE,4.6,-,N/A,Fog,Fog,130,2013-04-18 17:53:00
2:53 PM,57.0,55.9,96,30.23,1.0,Calm,Calm,-,N/A,,Overcast,0,2013-04-18 18:53:00
3:20 PM,57.2,57.2,100,30.22,2.5,South,6.9,-,N/A,,Overcast,170,2013-04-18 19:20:00
3:31 PM,57.2,57.2,100,30.22,1.2,Variable,3.5,-,N/A,,Overcast,0,2013-04-18 19:31:00
3:44 PM,57.2,57.2,100,30.21,2.0,SSE,3.5,-,N/A,,Overcast,150,2013-04-18 19:44:00
3:53 PM,60.1,57.9,93,30.20,6.0,Variable,3.5,-,N/A,,Overcast,0,2013-04-18 19:53:00
4:16 PM,60.8,57.2,88,30.20,7.0,SSE,4.6,-,N/A,,Overcast,160,2013-04-18 20:16:00
4:53 PM,59.0,57.9,96,30.19,7.0,South,4.6,-,N/A,,Mostly Cloudy,180,2013-04-18 20:53:00
5:21 PM,60.8,57.2,88,30.18,10.0,Variable,5.8,-,N/A,,Scattered Clouds,0,2013-04-18 21:21:00
5:53 PM,60.1,57.9,93,30.17,10.0,Variable,4.6,-,N/A,,Clear,0,2013-04-18 21:53:00
6:04 PM,60.8,57.2,88,30.16,10.0,Variable,3.5,-,N/A,,Partly Cloudy,0,2013-04-18 22:04:00
6:53 PM,59.0,57.0,93,30.15,8.0,Variable,5.8,-,N/A,,Clear,0,2013-04-18 22:53:00
7:53 PM,57.0,55.9,96,30.15,7.0,Variable,4.6,-,N/A,,Clear,0,2013-04-18 23:53:00
9:53 PM,55.9,55.9,100,30.14,9.0,Calm,Calm,-,N/A,,Clear,0,2013-04-19 01:53:00
10:53 PM,57.0,55.9,96,30.12,9.0,South,5.8,-,N/A,,Clear,170,2013-04-19 02:53:00
11:53 PM,57.0,57.0,100,30.10,9.0,Variable,5.8,-,N/A,,Clear,0,2013-04-19 03:53:00